TimeCDT,TemperatureF,Dew PointF,Humidity,Sea Level PressureIn,VisibilityMPH,Wind Direction,Wind SpeedMPH,Gust SpeedMPH,PrecipitationIn,Events,Conditions,WindDirDegrees,DateUTC
12:15 AM,73.4,60.8,65,29.78,10.0,Calm,Calm,-,N/A,,Mostly Cloudy,0,2013-06-29 05:15:00
12:55 AM,73.4,60.8,65,29.77,10.0,West,3.5,-,N/A,,Partly Cloudy,280,2013-06-29 05:55:00
1:15 AM,71.6,60.8,69,29.76,10.0,West,3.5,-,N/A,,Clear,270,2013-06-29 06:15:00
1:35 AM,69.8,59.0,68,29.76,10.0,West,4.6,-,N/A,,Clear,270,2013-06-29 06:35:00
1:55 AM,71.6,60.8,69,29.75,10.0,West,3.5,-,N/A,,Clear,280,2013-06-29 06:55:00
2:15 AM,71.6,60.8,69,29.74,10.0,West,4.6,-,N/A,,Clear,260,2013-06-29 07:15:00
2:35 AM,71.6,59.0,64,29.74,10.0,West,5.8,-,N/A,,Clear,270,2013-06-29 07:35:00
2:56 AM,69.8,59.0,68,29.74,10.0,West,5.8,-,N/A,,Clear,260,2013-06-29 07:56:00
3:15 AM,69.8,57.2,64,29.73,10.0,West,5.8,-,N/A,,Clear,270,2013-06-29 08:15:00
3:35 AM,69.8,57.2,64,29.73,10.0,West,5.8,-,N/A,,Clear,260,2013-06-29 08:35:00
3:55 AM,69.8,57.2,64,29.73,10.0,West,5.8,-,N/A,,Clear,260,2013-06-29 08:55:00
4:16 AM,69.8,57.2,64,29.73,10.0,West,5.8,-,N/A,,Clear,260,2013-06-29 09:16:00
4:35 AM,69.8,57.2,64,29.74,10.0,WSW,5.8,-,N/A,,Clear,250,2013-06-29 09:35:00
4:55 AM,68.0,57.2,68,29.74,10.0,West,5.8,-,N/A,,Clear,260,2013-06-29 09:55:00
5:15 AM,69.8,57.2,64,29.74,10.0,WSW,6.9,-,N/A,,Clear,250,2013-06-29 10:15:00
5:55 AM,68.0,57.2,68,29.74,10.0,WSW,5.8,-,N/A,,Clear,250,2013-06-29 10:55:00
6:15 AM,69.8,57.2,64,29.75,10.0,WSW,4.6,-,N/A,,Clear,250,2013-06-29 11:15:00
6:35 AM,69.8,59.0,68,29.75,10.0,West,3.5,-,N/A,,Clear,270,2013-06-29 11:35:00
6:55 AM,71.6,59.0,64,29.75,5.0,West,3.5,-,N/A,,Partly Cloudy,280,2013-06-29 11:55:00
7:15 AM,73.4,59.0,61,29.74,10.0,West,3.5,-,N/A,,Partly Cloudy,280,2013-06-29 12:15:00
7:35 AM,73.4,59.0,61,29.75,10.0,WNW,4.6,-,N/A,,Partly Cloudy,300,2013-06-29 12:35:00
7:56 AM,73.4,59.0,61,29.75,10.0,WNW,4.6,-,N/A,,Clear,290,2013-06-29 12:56:00
8:15 AM,75.2,59.0,57,29.75,10.0,NW,5.8,-,N/A,,Clear,310,2013-06-29 13:15:00
8:35 AM,75.2,57.2,53,29.75,10.0,NW,5.8,-,N/A,,Partly Cloudy,320,2013-06-29 13:35:00
8:55 AM,77.0,57.2,50,29.75,10.0,WNW,3.5,-,N/A,,Partly Cloudy,290,2013-06-29 13:55:00
9:15 AM,78.8,59.0,51,29.74,10.0,WNW,5.8,-,N/A,,Clear,290,2013-06-29 14:15:00
9:55 AM,80.6,60.8,51,29.74,10.0,West,5.8,-,N/A,,Clear,270,2013-06-29 14:55:00
10:15 AM,80.6,60.8,51,29.74,10.0,WNW,5.8,-,N/A,,Clear,290,2013-06-29 15:15:00
10:35 AM,80.6,59.0,48,29.74,10.0,WNW,5.8,-,N/A,,Clear,290,2013-06-29 15:35:00
10:55 AM,82.4,59.0,45,29.74,10.0,NW,11.5,17.3,N/A,,Clear,310,2013-06-29 15:55:00
11:16 AM,82.4,60.8,48,29.74,10.0,NW,8.1,-,N/A,,Clear,310,2013-06-29 16:16:00
11:35 AM,82.4,60.8,48,29.73,10.0,West,10.4,-,N/A,,Partly Cloudy,280,2013-06-29 16:35:00
11:55 AM,84.2,59.0,42,29.73,10.0,NW,8.1,-,N/A,,Partly Cloudy,320,2013-06-29 16:55:00
12:15 PM,84.2,60.8,45,29.73,10.0,West,10.4,-,N/A,,Scattered Clouds,280,2013-06-29 17:15:00
12:35 PM,82.4,57.2,42,29.73,10.0,West,6.9,-,N/A,,Mostly Cloudy,280,2013-06-29 17:35:00
12:55 PM,84.2,60.8,45,29.73,10.0,West,11.5,23.0,N/A,,Mostly Cloudy,270,2013-06-29 17:55:00
1:15 PM,86.0,59.0,40,29.72,10.0,West,18.4,23.0,N/A,,Mostly Cloudy,270,2013-06-29 18:15:00
1:36 PM,84.2,57.2,40,29.72,10.0,West,15.0,19.6,N/A,,Partly Cloudy,280,2013-06-29 18:36:00
1:55 PM,86.0,59.0,40,29.71,10.0,WNW,11.5,20.7,N/A,,Clear,290,2013-06-29 18:55:00
2:15 PM,86.0,59.0,40,29.71,10.0,West,12.7,18.4,N/A,,Partly Cloudy,280,2013-06-29 19:15:00
2:35 PM,86.0,59.0,40,29.71,10.0,WNW,15.0,21.9,N/A,,Partly Cloudy,300,2013-06-29 19:35:00
2:55 PM,86.0,59.0,40,29.71,10.0,West,11.5,-,N/A,,Clear,280,2013-06-29 19:55:00
3:15 PM,86.0,57.2,37,29.71,10.0,West,11.5,21.9,N/A,,Scattered Clouds,280,2013-06-29 20:15:00
3:35 PM,86.0,57.2,37,29.70,10.0,WNW,9.2,17.3,N/A,,Mostly Cloudy,290,2013-06-29 20:35:00
3:55 PM,86.0,57.2,37,29.70,10.0,WNW,11.5,21.9,N/A,,Scattered Clouds,290,2013-06-29 20:55:00
4:15 PM,86.0,57.2,37,29.70,10.0,West,12.7,18.4,N/A,,Scattered Clouds,280,2013-06-29 21:15:00
4:35 PM,86.0,57.2,37,29.69,10.0,West,12.7,18.4,N/A,,Mostly Cloudy,280,2013-06-29 21:35:00
4:55 PM,86.0,57.2,37,29.68,10.0,West,16.1,23.0,N/A,,Scattered Clouds,270,2013-06-29 21:55:00
5:15 PM,86.0,57.2,37,29.68,10.0,West,11.5,-,N/A,,Clear,270,2013-06-29 22:15:00
5:35 PM,86.0,57.2,37,29.68,10.0,West,10.4,19.6,N/A,,Partly Cloudy,270,2013-06-29 22:35:00
5:55 PM,84.2,55.4,37,29.68,10.0,West,11.5,19.6,N/A,,Partly Cloudy,280,2013-06-29 22:55:00
6:15 PM,84.2,55.4,37,29.68,10.0,West,10.4,17.3,N/A,,Clear,270,2013-06-29 23:15:00
6:36 PM,84.2,55.4,37,29.68,10.0,West,13.8,21.9,N/A,,Clear,270,2013-06-29 23:36:00
6:55 PM,84.2,55.4,37,29.68,10.0,West,11.5,18.4,N/A,,Clear,270,2013-06-29 23:55:00
7:15 PM,84.2,55.4,37,29.68,10.0,West,9.2,18.4,N/A,,Clear,270,2013-06-30 00:15:00
7:35 PM,82.4,55.4,39,29.69,10.0,WNW,6.9,-,N/A,,Clear,290,2013-06-30 00:35:00
7:55 PM,82.4,55.4,39,29.69,10.0,WNW,6.9,-,N/A,,Clear,290,2013-06-30 00:55:00
8:15 PM,80.6,55.4,42,29.70,10.0,WNW,8.1,-,N/A,,Clear,300,2013-06-30 01:15:00
8:35 PM,80.6,53.6,39,29.70,10.0,NW,10.4,-,N/A,,Partly Cloudy,320,2013-06-30 01:35:00
8:55 PM,77.0,51.8,41,29.72,10.0,NNW,13.8,23.0,N/A,,Mostly Cloudy,340,2013-06-30 01:55:00
9:15 PM,75.2,51.8,44,29.72,10.0,North,16.1,23.0,N/A,,Partly Cloudy,360,2013-06-30 02:15:00
9:35 PM,73.4,51.8,47,29.73,10.0,North,8.1,-,N/A,,Clear,360,2013-06-30 02:35:00
9:56 PM,73.4,51.8,47,29.74,10.0,NNE,4.6,-,N/A,,Mostly Cloudy,20,2013-06-30 02:56:00
10:15 PM,71.6,51.8,50,29.74,10.0,NNE,5.8,-,N/A,,Overcast,30,2013-06-30 03:15:00
10:35 PM,71.6,51.8,50,29.74,10.0,NNE,6.9,-,N/A,,Mostly Cloudy,30,2013-06-30 03:35:00
10:55 PM,69.8,53.6,56,29.73,10.0,East,4.6,-,N/A,,Mostly Cloudy,80,2013-06-30 03:55:00
11:15 PM,69.8,53.6,56,29.73,10.0,NE,3.5,-,N/A,,Overcast,50,2013-06-30 04:15:00
11:35 PM,69.8,53.6,56,29.73,10.0,Calm,Calm,-,N/A,,Overcast,0,2013-06-30 04:35:00
11:55 PM,69.8,53.6,56,29.74,10.0,Calm,Calm,-,N/A,,Overcast,0,2013-06-30 04:55:00